647  
AXUS43 KLBF 150110  
MISLBF  
 
WESTERN AND NORTH CENTRAL NEBRASKA HOURLY WEATHER ROUNDUP  
NATIONAL WEATHER SERVICE NORTH PLATTE NE  
800 PM CDT FRI MAY 14 2021  
 
NOTE: "FAIR" INDICATES FEW OR NO CLOUDS BELOW 12,000 FEET WITH NO  
SIGNIFICANT WEATHER AND/OR OBSTRUCTIONS TO VISIBILITY.  
 
NOTE: STATIONS NOT REPORTING SKY/WEATHER AND PRESSURE ARE  
PROVIDED BY RAWS AND APRS NETWORKS AND ARE NOT UNDER NATIONAL  
WEATHER SERVICE QUALITY CONTROL.  
   
..OBSERVATIONS IN AND NEAR THE EASTERN PANHANDLE OF NEBRASKA
 
 
 
CITY SKY/WX TMP DP RH WIND PRES REMARKS  
PINE RIDGE PTSUNNY 60 46 59 SW5 30.06R  
GORDON PTSUNNY 60 47 61 W6 30.06S  
CHADRON CLOUDY 57 48 72 S6 30.06S  
ALLIANCE PTSUNNY 61 44 53 SE6 30.07R  
SIDNEY CLOUDY 63 44 50 E14 30.05R  
CRESCENT LAKE N/A 61 43 50 NE6 N/A  

 
   
..OBSERVATIONS IN NORTHERN NEBRASKA AND FAR SOUTHERN SOUTH DAKOTA
 
 
 
CITY SKY/WX TMP DP RH WIND PRES REMARKS  
WINNER MOCLDY 71 38 29 NE3 29.99S  
VALENTINE MOCLDY 70 45 40 W3 30.01S  
AINSWORTH MOCLDY 66 43 42 CALM 30.02S  
O'NEILL PTCLDY 66 49 53 SE6 30.02S  
BROKEN BOW MOCLDY 66 53 63 SE7 30.03R  
ORD MOCLDY 66 54 65 S7 30.01R  
ALBION MOCLDY 68 52 55 SW6 30.02R  
EWING N/A 68 54 61 CALM N/A  
CHAMBERS N/A 67 53 59 CALM N/A  
BUTTE N/A 69 48 46 S5G12 N/A  
VALENTINE NWR N/A 66 40 39 W6 N/A  
HALSEY N/A 68 40 35 CALM N/A  

 
   
..OBSERVATIONS IN SOUTHWEST NEBRASKA AND FAR NORTHEAST COLORADO
 
 
 
CITY SKY/WX TMP DP RH WIND PRES REMARKS  
WRAY FAIR 64 50 59 NE20 30.03F  
HOLYOKE MOCLDY 64 48 55 E9 30.04F  
IMPERIAL MOCLDY 66 49 54 E13 30.03F  
OGALLALA PTCLDY 67 47 47 E9 30.05S  
NORTH PLATTE PTCLDY 65 52 62 SE7 30.04R  
MCCOOK MOCLDY 65 53 65 E12 30.02R  
LEXINGTON PTCLDY 66 54 66 SE8 30.04R  
CALLAWAY N/A 67 56 67 SE8 N/A  
STAPLETON N/A 66 49 54 CALM N/A  

 
   
..OBSERVATIONS IN CENTRAL LINCOLN COUNTY AREA
 
 
 
CITY SKY/WX TMP DP RH WIND PRES REMARKS  
N.P. AIRPORT PTCLDY 65 52 62 SE7 30.04R  
N.P. HILLCREST N/A 65 52 63 E8 N/A  
N.P. DOWNTOWN N/A 66 53 63 CALM N/A  

 
   
..OBSERVATIONS ACROSS THE ROCKIES AND WESTERN HIGH PLAINS
 
 
 
CITY SKY/WX TMP DP RH WIND PRES REMARKS  
SCOTTSBLUFF PTSUNNY 60 48 64 SE5 30.07R  
KIMBALL CLOUDY 52 46 79 NE13 30.10R  
CHEYENNE HVY RAIN 49 47 93 E15G21 30.12R FOG  
DENVER PTSUNNY 65 45 48 SE10 30.02R  
STEAMBOAT CLOUDY 59 35 40 E10G18 30.08F  
COPPER MTN MOSUNNY 45 21 39 SW17 30.37S  
LEADVILLE CLOUDY 54 18 24 W10G23 30.22F  
ASPEN PTSUNNY 64 24 21 S5 30.07R  
GUNNISON MOSUNNY 68 15 13 NW12 30.07R  
TELLURIDE MOSUNNY 63 9 12 W6 30.20S  
LARAMIE PTSUNNY 48 42 80 E9 30.14R  
CASPER PTSUNNY 59 36 42 E20G26 30.05R  
SHERIDAN CLOUDY 57 41 55 SW7 30.07S  
JACKSON CLOUDY 53 36 52 N14 30.07R  

 
   
..OBSERVATIONS ACROSS THE NORTHERN PLAINS
 
 
 
CITY SKY/WX TMP DP RH WIND PRES REMARKS  
RAPID CITY MOSUNNY 65 40 39 S10 30.04R  
PIERRE MOCLDY 68 43 40 W5 29.98R  
SIOUX FALLS LGT RAIN 63 50 62 SW7 30.02R  
ABERDEEN CLEAR 72 39 30 N12 29.97R  
WILLISTON FAIR 66 34 30 W5 30.01F  
DICKINSON CLOUDY 66 34 30 W7 30.00R  
BISMARCK MOSUNNY 71 34 25 SE5 29.99S  
FARGO PTCLDY 63 47 55 SE15 29.99R  
GRAND FORKS MOCLDY 62 44 51 S6 29.99R  

 
   
..OBSERVATIONS ACROSS THE CENTRAL AND SOUTHERN PLAINS
 
 
 
CITY SKY/WX TMP DP RH WIND PRES REMARKS  
GRAND ISLAND MOCLDY 64 55 72 S8 30.04R  
LINCOLN CLOUDY 66 55 67 S8 30.05S  
OMAHA CLOUDY 67 54 63 SE8 30.03F  
DES MOINES MOCLDY 61 47 59 E8 30.10S  
KANSAS CITY MOCLDY 68 51 54 S9 30.10F  
WICHITA PTCLDY 70 53 54 S13 30.02S  
DODGE CITY PTCLDY 71 58 63 SE21G31 29.94S  
OKLAHOMA CITY MOCLDY 66 52 60 SE17 30.06F  
DALLAS PTCLDY 75 54 47 SE10G22 30.08F  
AMARILLO TSTM 58 51 78 SW26G53 30.12R  

 
 
 
CLICK HERE TO GO TO PREVIOUS BULLETINS.

The Nexlab NE Page Main Text Page